• In Latvia
  • List of Countries
  • For 7 days
  • Water Temperature
  • Satellite Maps
  • Weather Map
  • Weather Widgets
  • user-avatar
    Login

    Hourly Weather Canberra

    Today, 13 December, Wednesday

    Time Temperature Precipitation Wind Pressure Humidity
    00:00 +18°C° 0 mm 1 mps 709 mmHg 75%
    01:00 +16°C° 0 mm 1 mps 708 mmHg 79%
    02:00 +16°C° 0 mm 1 mps 708 mmHg 80%
    03:00 +16°C° 0 mm 1 mps 708 mmHg 81%
    04:00 +15°C° 0 mm 1 mps 708 mmHg 85%
    05:00 +18°C° 0 mm 1 mps 708 mmHg 75%
    06:00 +21°C° 0 mm 1 mps 709 mmHg 65%
    07:00 +23°C° 0 mm 1 mps 709 mmHg 55%
    08:00 +26°C° 0 mm 1 mps 709 mmHg 45%
    09:00 +28°C° 0 mm 2 mps 709 mmHg 34%
    10:00 +31°C° 0 mm 2 mps 709 mmHg 28%
    11:00 +33°C° 0 mm 3 mps 709 mmHg 24%
    12:00 +34°C° 0 mm 3 mps 708 mmHg 20%
    13:00 +35°C° 0 mm 4 mps 708 mmHg 16%
    14:00 +35°C° 0 mm 4 mps 707 mmHg 16%
    15:00 +35°C° 0 mm 4 mps 707 mmHg 17%
    16:00 +35°C° 0 mm 3 mps 706 mmHg 18%
    17:00 +31°C° 0 mm 3 mps 706 mmHg 24%
    18:00 +28°C° 0 mm 2 mps 706 mmHg 30%
    19:00 +26°C° 0 mm 1 mps 706 mmHg 36%
    20:00 +25°C° 0 mm 1 mps 706 mmHg 37%
    21:00 +24°C° 0 mm 1 mps 706 mmHg 38%
    22:00 +22°C° 0 mm 1 mps 706 mmHg 39%
    23:00 +22°C° 0 mm 1 mps 705 mmHg 42%

    Tomorrow, 14 December, Thursday

    Time Temperature Precipitation Wind Pressure Humidity
    00:00 +21°C° 0 mm 1 mps 705 mmHg 45%
    01:00 +21°C° 0 mm 1 mps 704 mmHg 48%
    02:00 +21°C° 0 mm 1 mps 704 mmHg 48%
    03:00 +21°C° 0 mm 1 mps 704 mmHg 48%
    04:00 +20°C° 0 mm 2 mps 703 mmHg 48%
    05:00 +21°C° 0 mm 2 mps 704 mmHg 45%
    06:00 +24°C° 0 mm 3 mps 704 mmHg 43%
    07:00 +26°C° 0 mm 4 mps 704 mmHg 40%
    08:00 +28°C° 0 mm 5 mps 705 mmHg 35%
    09:00 +32°C° 0 mm 6 mps 705 mmHg 30%
    10:00 +34°C° 0 mm 8 mps 705 mmHg 25%
    11:00 +35°C° 0 mm 8 mps 705 mmHg 24%
    12:00 +37°C° 0 mm 8 mps 704 mmHg 22%
    13:00 +38°C° 0 mm 7 mps 704 mmHg 21%
    14:00 +36°C° 0 mm 6 mps 704 mmHg 22%
    15:00 +35°C° 0 mm 5 mps 704 mmHg 24%
    16:00 +34°C° 0 mm 4 mps 703 mmHg 25%
    17:00 +32°C° 0 mm 4 mps 704 mmHg 30%
    18:00 +30°C° 0 mm 3 mps 704 mmHg 34%
    19:00 +28°C° 0 mm 2 mps 705 mmHg 39%
    20:00 +26°C° 0 mm 2 mps 705 mmHg 46%
    21:00 +24°C° 0 mm 2 mps 706 mmHg 53%
    22:00 +23°C° 0 mm 1 mps 706 mmHg 59%
    23:00 +22°C° 0 mm 1 mps 706 mmHg 65%

    Day after tomorrow, 15 December, Friday

    Time Temperature Precipitation Wind Pressure Humidity
    00:00 +20°C° 0 mm 2 mps 706 mmHg 71%
    01:00 +19°C° 0 mm 2 mps 706 mmHg 76%
    02:00 +18°C° 0 mm 2 mps 706 mmHg 80%
    03:00 +18°C° 0 mm 2 mps 706 mmHg 84%
    04:00 +17°C° 0 mm 2 mps 706 mmHg 87%
    05:00 +17°C° 0 mm 2 mps 707 mmHg 85%
    06:00 +18°C° 0 mm 2 mps 707 mmHg 84%
    07:00 +18°C° 0 mm 2 mps 708 mmHg 82%
    08:00 +20°C° 0 mm 2 mps 708 mmHg 74%
    09:00 +23°C° 0 mm 2 mps 708 mmHg 67%
    10:00 +24°C° 0 mm 2 mps 708 mmHg 60%
    11:00 +26°C° 0 mm 3 mps 708 mmHg 54%
    12:00 +28°C° 0 mm 4 mps 708 mmHg 49%
    13:00 +29°C° 0 mm 5 mps 708 mmHg 43%
    14:00 +29°C° 0 mm 4 mps 707 mmHg 42%
    15:00 +29°C° 0 mm 4 mps 707 mmHg 41%
    16:00 +30°C° 0 mm 4 mps 707 mmHg 39%
    17:00 +28°C° 0 mm 3 mps 707 mmHg 45%
    18:00 +27°C° 0 mm 2 mps 707 mmHg 51%
    19:00 +25°C° 0 mm 2 mps 707 mmHg 56%
    20:00 +24°C° 0 mm 1 mps 707 mmHg 61%
    21:00 +23°C° 0 mm 1 mps 707 mmHg 65%
    22:00 +21°C° 0 mm 1 mps 707 mmHg 69%
    23:00 +21°C° 0 mm 1 mps 707 mmHg 70%

    16 December, Saturday

    Time Temperature Precipitation Wind Pressure Humidity
    00:00 +21°C° 0 mm 1 mps 707 mmHg 71%
    01:00 +21°C° 0 mm 1 mps 707 mmHg 72%
    02:00 +20°C° 0 mm 1 mps 707 mmHg 72%
    03:00 +20°C° 0 mm 1 mps 707 mmHg 73%
    04:00 +20°C° 0 mm 1 mps 707 mmHg 74%
    05:00 +22°C° 0 mm 1 mps 708 mmHg 68%
    06:00 +24°C° 0 mm 1 mps 708 mmHg 62%
    07:00 +25°C° 0 mm 1 mps 709 mmHg 56%
    08:00 +27°C° 0 mm 2 mps 709 mmHg 50%
    09:00 +29°C° 0 mm 3 mps 709 mmHg 44%
    10:00 +32°C° 0 mm 4 mps 710 mmHg 38%
    11:00 +34°C° 0 mm 4 mps 709 mmHg 35%
    12:00 +35°C° 0 mm 5 mps 709 mmHg 32%
    13:00 +36°C° 0 mm 5 mps 709 mmHg 29%
    14:00 +35°C° 0 mm 4 mps 709 mmHg 31%
    15:00 +34°C° 0 mm 4 mps 708 mmHg 32%
    16:00 +33°C° 0 mm 3 mps 708 mmHg 34%
    17:00 +31°C° 0 mm 2 mps 708 mmHg 39%
    18:00 +29°C° 0 mm 2 mps 708 mmHg 44%
    19:00 +27°C° 0 mm 1 mps 709 mmHg 49%
    20:00 +25°C° 0 mm 2 mps 709 mmHg 58%
    21:00 +24°C° 0 mm 2 mps 709 mmHg 66%
    22:00 +21°C° 0 mm 2 mps 709 mmHg 74%
    23:00 +20°C° 0 mm 2 mps 709 mmHg 79%

    17 December, Sunday

    Time Temperature Precipitation Wind Pressure Humidity
    00:00 +20°C° 0 mm 2 mps 709 mmHg 85%
    01:00 +19°C° 0 mm 2 mps 709 mmHg 90%
    02:00 +18°C° 0 mm 2 mps 709 mmHg 91%
    03:00 +18°C° 0 mm 2 mps 709 mmHg 91%
    04:00 +18°C° 0 mm 2 mps 709 mmHg 92%
    05:00 +19°C° 0 mm 2 mps 709 mmHg 85%
    06:00 +21°C° 0 mm 2 mps 709 mmHg 78%
    07:00 +23°C° 0 mm 2 mps 710 mmHg 71%
    08:00 +26°C° 0 mm 2 mps 710 mmHg 62%
    09:00 +29°C° 0 mm 2 mps 710 mmHg 53%
    10:00 +31°C° 0 mm 2 mps 710 mmHg 45%
    11:00 +34°C° 0 mm 2 mps 710 mmHg 39%
    12:00 +35°C° 0 mm 3 mps 710 mmHg 34%
    13:00 +37°C° 0 mm 3 mps 709 mmHg 29%
    14:00 +36°C° 0 mm 2 mps 709 mmHg 31%
    15:00 +35°C° 0 mm 2 mps 709 mmHg 34%
    16:00 +34°C° 0 mm 2 mps 708 mmHg 36%
    17:00 +30°C° 0.1 mm 2 mps 708 mmHg 50%
    18:00 +28°C° 0.1 mm 3 mps 708 mmHg 63%
    19:00 +25°C° 0.1 mm 3 mps 708 mmHg 77%
    20:00 +24°C° 0.5 mm 3 mps 709 mmHg 82%
    21:00 +22°C° 0.5 mm 3 mps 709 mmHg 86%
    22:00 +21°C° 0.5 mm 3 mps 709 mmHg 91%
    23:00 +20°C° 0.1 mm 2 mps 709 mmHg 92%

    18 December, Monday

    Time Temperature Precipitation Wind Pressure Humidity
    00:00 +20°C° 0.1 mm 2 mps 709 mmHg 93%
    01:00 +19°C° 0.1 mm 2 mps 708 mmHg 93%
    02:00 +20°C° 0 mm 1 mps 708 mmHg 94%
    03:00 +20°C° 0 mm 1 mps 708 mmHg 95%
    04:00 +20°C° 0 mm 1 mps 708 mmHg 95%
    05:00 +21°C° 0 mm 1 mps 708 mmHg 88%
    06:00 +23°C° 0 mm 1 mps 708 mmHg 80%
    07:00 +25°C° 0 mm 1 mps 709 mmHg 73%
    08:00 +28°C° 0 mm 2 mps 709 mmHg 59%
    09:00 +31°C° 0 mm 3 mps 709 mmHg 46%
    10:00 +36°C° 0 mm 4 mps 709 mmHg 33%
    11:00 +37°C° 0 mm 4 mps 709 mmHg 30%
    12:00 +38°C° 0 mm 4 mps 708 mmHg 27%
    13:00 +40°C° 0 mm 4 mps 708 mmHg 23%
    14:00 +40°C° 0 mm 4 mps 707 mmHg 24%
    15:00 +38°C° 0 mm 3 mps 707 mmHg 25%
    16:00 +38°C° 0 mm 3 mps 706 mmHg 27%
    17:00 +35°C° 0.2 mm 2 mps 706 mmHg 36%
    18:00 +31°C° 0.2 mm 2 mps 706 mmHg 45%
    19:00 +28°C° 0.2 mm 1 mps 705 mmHg 54%
    20:00 +27°C° 0.2 mm 2 mps 705 mmHg 57%
    21:00 +26°C° 0.2 mm 2 mps 705 mmHg 59%
    22:00 +26°C° 0.2 mm 2 mps 706 mmHg 61%
    23:00 +26°C° 0 mm 2 mps 705 mmHg 62%
    Show more